Regional Weather Roundup
Issued by NWS

Home | Current Version | Previous Version | Graphics & Text | Print | Product List | Glossary On
Versions: 1 2 3 4 5 6 7 8 9 10 11 12 13 14 15 16 17 18 19 20 21 22 23 24 25 26 27 28 29 30 31 32 33 34 35 36 37 38 39 40 41 42 43 44 45 46 47 48 49 50
000
ASUS43 KFSD 171110
RWRSD

WEATHER ROUNDUP FOR SOUTH DAKOTA
NATIONAL WEATHER SERVICE SIOUX FALLS SD
500 AM CST FRI NOV 17 2017

NOTE: "FAIR" INDICATES FEW OR NO CLOUDS BELOW 12,000 FEET WITH NO
SIGNIFICANT WEATHER AND/OR OBSTRUCTIONS TO VISIBILITY.


SDZ001>005-009-010-012>017-171200-
NORTHWEST AND NORTH CENTRAL SOUTH DAKOTA

CITY           SKY/WX    TMP DP  RH WIND       PRES   REMARKS
BUFFALO          N/A     37  31  78 SE5       29.56F
FAITH            N/A     36  31  82 W8        29.66R
MOBRIDGE       CLOUDY    38  30  73 N6        29.61R
$$

SDZ012>016-024>037-041>051-057-063-072>074-171200-
SOUTHWEST AND SOUTH CENTRAL SOUTH DAKOTA

CITY           SKY/WX    TMP DP  RH WIND       PRES   REMARKS
RAPID CTY ARPT LGT RAIN  39  34  82 NW12      29.66S
PIERRE         CLOUDY    36  29  75 N8        29.60R
CUSTER         LGT RAIN  35  32  88 NW5       29.63R
ELLSWORTH AFB  RAIN      39  36  87 N14       29.65F
PHILIP         MOCLDY    33  28  81 W7        29.67R WCI  27
PINE RIDGE     CLOUDY    34  26  72 NE5       29.66S WCI  30
SPEARFISH      MIX PCPN  36  32  87 SW5       29.67F
WINNER         FAIR      39  30  70 NW10      29.62R
$$

SDZ004>011-016>023-039-040-171200-
NORTHEAST SOUTH DAKOTA

CITY           SKY/WX    TMP DP  RH WIND       PRES   REMARKS
ABERDEEN       CLOUDY    31  27  85 N7        29.58S WCI  24
WATERTOWN      CLOUDY    35  30  82 S10       29.56R WCI  27
BROOKINGS      CLOUDY    36  30  79 S10       29.58R
SISSETON         N/A     28  25  88 CALM      29.62R
$$

SDZ017-020-022-023-036>040-048>070-171200-
SOUTHEAST SOUTH DAKOTA

CITY           SKY/WX    TMP DP  RH WIND       PRES   REMARKS
SIOUX FALLS    CLOUDY    40  33  76 S12       29.59S
HURON          CLOUDY    36  31  82 CALM      29.53R
CHAMBERLAIN    CLOUDY    42  32  67 NW9       29.58R
MITCHELL       CLOUDY    37  33  85 S8        29.54R
YANKTON        MOCLDY    45  39  79 S10       29.59R
$$

ABBREVIATIONS USED IN REMARKS
   TC - TEMPERATURE IN CELSIUS
  WCI - WIND CHILL INDEX
   HX - HEAT INDEX
  VSB - VISIBILITY





USA.gov is the U.S. government's official web portal to all federal, state and local government web resources and services.